Regional Weather Roundup
Issued by NWS

Home | Current Version | Previous Version | Text Only | Print | Product List | Glossary On
Versions: 1 2 3 4 5 6 7 8 9 10 11 12 13 14 15 16 17 18 19 20 21 22 23 24 25 26 27 28 29 30 31 32 33 34 35 36 37 38 39 40 41 42 43 44 45 46 47 48 49 50
000
ASUS45 KCYS 300710
RWRWY

WYOMING REGIONAL WEATHER ROUNDUP
NATIONAL WEATHER SERVICE CHEYENNE WY
100 AM MDT MON MAR 30 2015

NOTE:  "FAIR" INDICATES FEW OR NO CLOUDS BELOW 12,000 FEET
WITH NO SIGNIFICANT WEATHER AND/OR OBSTRUCTIONS TO VISIBILITY.

WYZ001-300800-
YELLOWSTONE NATIONAL PARK

CITY           SKY/WX    TMP DP  RH WIND       PRES   REMARKS
LK YELLOWSTONE   N/A     25  18  74 CALM      30.28F
W YELLOWSTONE  NOT AVBL

$$
WYZ002>013-054>058-071-098>099-300800-
NORTHERN WYOMING

CITY           SKY/WX    TMP DP  RH WIND       PRES   REMARKS
JACKSON        FAIR      28  25  86 N6        30.25S WCI  22
CODY           FAIR      54  14  20 W12G26    30.10F
GREYBULL       FAIR      42  20  41 SE7       30.09R
WORLAND        FAIR      33  22  63 CALM      30.10R
SHERIDAN       FAIR      35  25  66 CALM      30.04S
BUFFALO        FAIR      44  22  41 SW6       30.07S
GILLETTE       FAIR      39  26  59 S8        30.05S WCI  33
HULETT         FAIR      41  25  52 SW7       30.05S
NEWCASTLE      FAIR      39  23  52 CALM      30.06F

$$
WYZ014>020-022>026-101>103-300800-
CENTRAL WYOMING

CITY           SKY/WX    TMP DP  RH WIND       PRES   REMARKS
BIG PINEY      FAIR      30  17  58 S3        30.27R
PINEDALE       PTSUNNY   30  21  69 NW7       30.27S WCI  23
DUBOIS         FAIR      36  18  48 NW16      30.21S WCI  26
LANDER         FAIR      49  14  24 VRB3      30.14R
RIVERTON       FAIR      50  17  27 NW23      30.13S
CASPER         FAIR      29  16  58 SW6       30.11S WCI  23
DOUGLAS        FAIR      36  19  50 CALM      30.10F

$$
WYZ021-027>030-104>119-300800-
SOUTHERN WYOMING

CITY           SKY/WX    TMP DP  RH WIND       PRES   REMARKS
EVANSTON       FAIR      40  15  36 S3        30.28S
KEMMERER       FAIR      37  12  35 CALM      30.28S
FORT BRIDGER   FAIR      38  17  42 W10       30.30S WCI  30
ROCK SPRINGS   FAIR      39  12  33 SW13      30.25R WCI  31
DIXON          FAIR      34  19  55 CALM      30.27S
RAWLINS        FAIR      39  10  30 NW5       30.21S
SARATOGA       FAIR      32  12  43 CALM      30.23S
LARAMIE        FAIR      35  15  44 SW5       30.19F WCI  31
CHEYENNE       FAIR      42  23  46 SW10      30.15F
TORRINGTON     FAIR      36  22  56 S7        30.07S WCI  30
PINE BLUFFS    FAIR      41  21  45 SW12      30.13F

$$


USA.gov is the U.S. government's official web portal to all federal, state and local government web resources and services.